Location: Camphin
(50.5120°N, 2.9871°E)
Time: 10:14:04
(UTC+00:00)

Daily predictions for brighter satellites

Satellite Brightness Start Highest point End
(mag) Time Altitude Azimuth Time Altitude Azimuth Time Altitude Azimuth
USA 267 3.8 16:14:52 10° ENE 16:21:11 49° SE 16:27:28 10° SSW
Cosmos 2360 Rocket 4.0 16:19:47 10° N 16:21:51 12° NNE 16:23:55 10° NE
SJ 16-02 3.0 16:20:05 10° NW 16:24:10 39° WSW 16:28:15 10° S
H-2A R/B 3.0 16:21:05 10° ESE 16:25:13 25° ENE 16:29:17 10° N
USA 276 4.1 16:25:09 10° W 16:27:56 30° SSW 16:30:43 10° SE
Cosmos 1763 Rocket 4.0 16:23:16 10° S 16:27:56 39° ESE 16:32:40 10° NE
USA 305 3.2 16:24:12 10° W 16:28:22 56° N 16:32:34 10° ENE
CZ-4B R/B 2.8 16:25:21 10° SSE 16:29:19 62° ENE 16:33:06 10° N
Cosmos 1656 3.9 16:24:16 10° NNW 16:29:49 77° WSW 16:35:24 10° SSE
Cosmos 1933 4.3 16:30:49 10° SSE 16:34:15 27° E 16:37:42 10° NNE
USA 229 DEB 4.0 16:27:18 10° NW 16:34:35 88° NE 16:42:23 10° SE
USA 229 4.0 16:27:24 10° NW 16:34:41 88° NE 16:42:28 10° SE
Cosmos 1937 Rocket 3.7 16:30:57 10° NNW 16:36:10 52° ENE 16:41:20 10° SE
Cosmos 1464 Rocket 4.1 16:29:52 10° S 16:36:15 83° E 16:42:39 10° N
Cosmos 1500 Rocket 3.6 16:34:43 10° N 16:39:09 64° ENE 16:43:31 10° SSE
SL-16 R/B 4.4 16:34:24 10° N 16:39:09 24° NW 16:43:55 10° WSW
Cosmos 1666 4.2 16:36:58 10° NNE 16:39:15 15° ENE 16:41:32 10° ESE
Spot 1 4.4 16:34:45 10° NNE 16:39:24 64° ESE 16:44:18 10° S
Nadezhda 4 Rocket 4.0 16:34:34 10° N 16:40:56 83° ENE 16:47:17 10° S
SL-24 R/B - RUBIN 2 3.8 16:37:05 10° NW 16:41:38 49° NE 16:45:52 10° ESE
SeaSat 1 3.7 16:37:34 10° NNE 16:42:03 36° NW 16:46:31 10° WSW
Cosmos 2322 Rocket 3.7 16:38:53 10° N 16:42:39 18° NNE 16:45:58 11° ENE
Cosmos 990 Rocket 4.1 16:37:55 10° NNW 16:43:09 85° WSW 16:48:19 10° SSE
ATLAS 2AS CENTAUR R/B 3.9 16:36:18 10° W 16:43:15 34° NNW 16:49:55 10° NE
Cosmos 1697 Rocket 2.6 16:39:50 10° NNW 16:45:29 78° ENE 16:51:06 10° SSE
FengYun 1-2 T 4.2 16:41:27 10° SSE 16:47:02 77° ENE 16:52:35 10° NNW
Cosmos 372 Rocket 4.3 16:42:20 10° NNW 16:47:20 43° ENE 16:52:19 10° SE
Cosmos 1271 Rocket 4.3 16:44:37 10° SW 16:48:17 36° WNW 16:52:01 10° N
Sich 1 3.4 16:44:48 10° N 16:48:50 39° ENE 16:52:53 10° SE
NOSS 2-1 (C) 4.4 16:46:45 10° W 16:49:36 27° NNW 16:52:41 10° NNE
Cosmos 1980 Rocket 2.4 16:44:13 10° NNW 16:49:44 49° NE 16:55:12 10° SE
NOAA 6 4.0 16:45:19 10° SSE 16:50:25 67° ENE 16:55:31 10° N
Cosmos 1805 Rocket 3.7 16:46:38 10° N 16:50:53 51° ENE 16:55:07 10° SSE
Cosmos 2369 3.7 16:46:00 10° NNW 16:51:43 61° ENE 16:57:22 10° SE
Cosmos 2221 2.8 16:48:09 10° SSW 16:52:24 70° W 16:56:44 10° N
CZ-4C R/B 3.0 16:49:14 10° NW 16:55:58 58° NE 17:04:01 10° ESE
USA 234 3.4 16:49:52 10° SE 16:56:25 80° SSW 17:03:00 10° WNW
Cosmos 1092 Rocket 4.0 16:50:29 10° N 16:56:51 68° ENE 17:03:08 10° SSE
Cosmos 1842 Rocket 3.9 16:52:50 10° SSW 16:57:17 73° WNW 17:01:48 10° N
NOSS 3-1 (A) 4.5 16:50:46 10° NW 16:58:07 71° SW 17:06:46 10° SSE
Cosmos 1428 Rocket 4.5 16:53:28 10° N 16:59:34 62° ENE 17:05:39 10° SSE
USA 306 3.2 16:56:30 10° W 17:00:40 52° N 17:03:42 18° ENE
SL-16 R/B 3.3 16:56:14 10° NNW 17:00:50 24° NE 17:04:15 15° E
Cosmos 1812 4.0 16:58:23 10° SE 17:01:18 21° E 17:02:43 17° ENE
ISS -3.6 16:58:27 10° WNW 17:01:51 76° SSW 17:04:58 12° ESE
Meteor 1-25 Rocket 4.2 16:56:58 10° NNW 17:02:35 84° ENE 17:08:11 10° SSE
NOSS 2-2 (D) 4.2 16:58:54 10° NW 17:03:48 75° NE 17:10:41 10° SE
NOSS 2-2 (E) 4.3 16:59:05 10° NW 17:04:09 87° NE 17:11:19 10° SE
deb Chang Zheng 4 4.2 17:02:03 10° SE 17:05:53 32° ENE 17:09:45 10° N
SMAP 3.0 17:01:43 10° SSE 17:06:23 89° E 17:11:05 10° NNW
Cosmos 2082 Rocket 2.9 17:01:53 10° SSE 17:06:55 34° ESE 17:10:43 16° NE
Cosmos 1939 Rocket 3.0 17:03:30 10° S 17:07:37 81° WSW 17:11:43 10° NNW
Cosmos 858 Rocket 4.5 17:03:22 10° NNW 17:08:42 82° ENE 17:13:58 10° SSE
CORIOLIS 4.1 17:03:58 10° SSE 17:09:22 84° ENE 17:14:51 10° NNW
Cosmos 44 Rocket 3.9 17:06:24 10° NNW 17:11:02 38° NE 17:14:23 17° E
Cosmos 2333 Rocket 4.0 17:08:10 10° N 17:11:04 14° NNE 17:12:25 13° NE
CZ-4B DEB 4.2 17:10:14 10° SSE 17:15:45 83° ENE 17:21:17 10° NNW
Cosmos 2278 3.8 17:10:08 10° NNW 17:15:46 55° NE 17:21:21 10° SE
Cosmos 1602 3.7 17:12:16 10° N 17:16:08 88° W 17:20:00 10° S
Cosmos 1627 Rocket 4.4 17:12:06 10° N 17:18:20 82° E 17:24:28 10° SSE
USA 307 3.2 17:15:16 10° WNW 17:19:28 52° N 17:21:44 25° ENE
AQUARIUS 4.3 17:15:49 10° SSE 17:20:19 80° WSW 17:24:50 10° NNW
Cosmos 540 Rocket 3.4 17:16:47 10° S 17:21:49 64° ESE 17:26:08 14° NNE
Cosmos 2034 Rocket 4.4 17:17:08 10° SSW 17:23:15 67° WNW 17:29:25 10° N
COSMO-SKYMED 1 3.3 17:23:24 23° NE 17:25:17 32° E 17:29:11 10° SSE
ARGOS 3.3 17:20:47 10° SE 17:25:57 48° ENE 17:31:08 10° N
Cosmos 2279 Rocket 4.2 17:21:06 10° SSE 17:26:58 46° E 17:32:51 10° NNE
COSMOS 2406 3.2 17:21:45 10° SSW 17:27:28 73° ESE 17:32:09 16° NNE
Cosmos 1833 Rocket 2.7 17:23:08 10° SSW 17:28:46 89° WNW 17:33:41 14° NNE
Meteor 2-21 4.4 17:23:12 10° N 17:29:21 87° E 17:35:23 10° S
Cosmos 1782 2.7 17:26:16 10° S 17:30:14 71° E 17:33:48 13° NNE
Cosmos 1814 Rocket 4.5 17:26:37 10° S 17:31:26 39° ESE 17:33:44 25° NE
ATLAS 5 CENTAUR R/B 2.7 17:22:37 10° NW 17:31:34 52° NNE 17:33:07 31° E
Cosmos 1633 Rocket 3.1 17:29:47 10° N 17:34:04 52° ENE 17:38:21 10° SSE
Cosmos 1818 3.7 17:29:45 10° NW 17:35:10 55° NE 17:38:50 20° ESE
ATLAS CENTAUR R/B 3.6 17:32:18 10° WNW 17:35:21 18° NNW 17:37:49 13° NNE
Cosmos 2219 Rocket 3.9 17:33:13 10° N 17:36:18 15° NNE 17:36:27 15° NNE
Cosmos 468 Rocket 4.3 17:31:20 10° SW 17:36:28 65° WNW 17:41:28 11° NNE
YAOGAN 1 3.7 17:39:35 25° NE 17:39:35 25° NE 17:42:10 10° N
ERBS 3.5 17:37:48 10° WNW 17:40:36 26° N 17:41:01 26° N
GEOS 3 Rocket 3.8 17:37:59 24° ESE 17:40:52 51° NE 17:45:53 10° NW
CZ-2D R/B 3.4 17:37:15 10° S 17:41:05 72° WSW 17:44:56 10° NNW
USA 308 3.2 17:37:46 10° WNW 17:41:57 53° N 17:43:14 38° ENE
SJ-11-01 4.2 17:39:09 10° SSE 17:43:51 63° ENE 17:48:33 10° N
Cosmos 1634 Rocket 4.0 17:37:31 10° S 17:43:52 89° E 17:50:15 10° N
COSMOS 2455 2.8 17:38:44 10° SSW 17:44:42 68° ESE 17:48:14 26° NE
CZ-2C R/B 2.6 17:40:35 15° NNE 17:44:45 52° E 17:49:47 10° S
PAYLOAD B 4.4 17:40:01 10° S 17:45:36 75° WSW 17:51:15 10° NNW
Cosmos 1500 3.6 17:41:56 10° NNW 17:45:39 62° W 17:49:19 10° S
Cosmos 2026 Rocket 4.3 17:40:59 10° NNW 17:47:06 67° W 17:53:06 10° S
CZ-4B R/B 3.1 17:42:41 10° SSE 17:48:06 84° ENE 17:53:29 10° NNW
Cosmos 1151 Rocket 3.0 17:45:01 10° S 17:49:16 62° E 17:51:27 28° NNE
Lacrosse 5 rocket 1.2 17:45:55 10° NW 17:49:47 65° NNE 17:50:36 50° E
Okean O Rocket 1.5 17:47:42 10° SSE 17:52:08 73° ENE 17:56:37 10° N
CZ-4 R/B 3.5 17:59:39 15° N 17:59:39 15° N 18:00:25 10° N
Cosmos 1666 Rocket 3.7 17:55:28 10° NNW 17:59:55 75° W 18:04:19 10° S
Cosmos 2208 Rocket 4.3 17:55:24 10° S 18:00:35 48° ESE 18:01:39 42° ENE
CZ-4 R/B 4.3 17:57:20 10° SSE 18:01:28 85° ENE 18:05:38 10° NNW
Meteor 1-11 Rocket 3.8 17:56:32 10° N 18:01:58 48° ENE 18:05:45 20° SE
Cosmos 1470 Rocket 3.5 17:58:44 10° N 18:03:10 61° ENE 18:07:35 10° SSE
Cosmos 2150 Rocket 4.0 17:58:12 10° NNW 18:03:18 56° ENE 18:04:48 41° ESE
Meteor 1-10 Rocket 4.4 17:58:12 10° SSE 18:03:40 46° E 18:04:52 40° ENE
H-2A R/B 2.7 17:59:17 10° S 18:04:21 57° W 18:09:19 10° NNW
USA 267 3.3 18:01:04 31° NE 18:04:27 75° NNW 18:10:59 10° WSW
Cosmos 1655 Rocket 4.0 17:58:49 10° N 18:05:12 63° ENE 18:11:30 10° SSE
Cosmos 1328 Rocket 3.4 18:02:23 10° S 18:06:48 67° E 18:07:30 57° NE
Cosmos 2360 Rocket 3.1 18:02:43 10° NNW 18:07:10 31° NNE 18:07:10 31° NNE
Landsat 5 3.8 18:08:41 48° SSE 18:08:41 48° SSE 18:11:52 10° S
USA 305 2.9 18:04:25 10° WNW 18:08:37 61° NNE 18:08:46 61° NNE
SKYMED 2 3.5 18:12:01 41° NNE 18:13:31 88° W 18:17:52 10° SSW
Cosmos 1666 3.4 18:11:28 10° NNW 18:15:06 51° W 18:18:42 10° S
Cosmos 2180 Rocket 4.4 18:09:19 10° S 18:15:39 79° E 18:21:57 10° NNE
Cosmos 841 Rocket 3.8 18:10:53 10° SW 18:16:00 63° WNW 18:18:54 26° NNE
COSMOS 2428 4.4 18:13:06 10° N 18:15:41 17° NNE 18:15:41 17° NNE
Feng Yun 1-1 Rocket 4.2 18:11:38 10° SSE 18:17:34 81° ENE 18:23:27 10° NNW
Meteor 2-8 Rocket 4.3 18:13:05 10° S 18:19:13 81° E 18:25:25 10° NNE
ATLAS CENTAUR R/B 2.3 18:12:20 10° WSW 18:20:07 69° NNW 18:20:43 60° NNE
Cosmos 1125 Rocket 3.3 18:16:11 10° NNW 18:21:27 71° ENE 18:22:14 60° ESE
Cosmos 2322 Rocket 2.2 18:22:17 10° NNW 18:27:49 59° NE 18:27:49 59° NE
Cosmos 1980 Rocket 3.8 18:28:31 10° NW 18:33:35 34° WSW 18:38:35 10° S
NOSS 3-4 (A) 4.3 18:27:37 10° NW 18:33:41 37° NNE 18:33:58 37° NNE
NOSS 3-4 (C) 4.3 18:27:43 10° NW 18:33:47 37° NNE 18:34:03 37° NNE
SL-08 RB Rocket 4.1 18:30:52 10° S 18:35:28 64° WSW 18:40:04 10° NNW
ATLAS 2AS CENTAUR R/B 3.8 18:29:44 10° NW 18:36:20 31° N 18:37:27 30° NNE
Cosmos 1812 4.2 18:33:15 10° SW 18:36:50 36° WNW 18:37:47 31° NW
ISS -1.4 18:35:39 10° W 18:37:58 21° SW 18:37:58 21° SW
USA 306 3.8 18:36:37 10° WNW 18:39:42 45° NW 18:39:42 45° NW
CZ-4C R/B 3.7 18:37:47 10° NW 18:44:45 52° WSW 18:52:49 10° SSE
SL-16 R/B 2.1 18:39:57 10° NNW 18:45:41 85° WSW 18:46:11 75° S
Cosmos 2237 Rocket 4.4 18:46:02 10° N 18:47:00 12° N 18:47:00 12° N
Cosmos 2082 Rocket 2.9 18:45:19 10° SW 18:50:49 50° NW 18:52:35 37° N
Cosmos 44 Rocket 4.0 18:47:59 10° NW 18:52:44 48° WSW 18:53:10 46° SW
Cosmos 2333 Rocket 3.7 18:51:41 10° NNW 18:54:26 25° N 18:54:26 25° N
COSMO-SKYMED 1 4.2 19:00:37 30° NW 19:01:26 32° WNW 19:05:17 10° SW
ATLAS CENTAUR R/B 4.3 19:13:23 10° NNW 19:13:56 12° NNW 19:13:56 12° NNW
Cosmos 2219 Rocket 4.1 19:16:22 10° NNW 19:18:11 20° NNW 19:18:11 20° NNW
CZ-2C R/B 4.4 19:22:06 18° NNW 19:24:48 28° WNW 19:29:07 10° WSW
Lacrosse 5 rocket 4.1 19:25:11 10° WNW 19:26:12 16° W 19:26:12 16° W
COSMOS 2455 4.1 19:25:37 10° WSW 19:31:06 35° NW 19:31:23 34° NNW
BREEZE-M DEB (TANK) 4.5 19:28:22 10° SW 19:44:57 61° SSW 19:44:57 61° SSW
USA 267 4.0 19:48:24 45° NW 19:48:24 45° NW 19:53:24 10° WNW
Cosmos 2360 Rocket 4.0 19:46:35 10° NW 19:48:57 25° NW 19:48:57 25° NW
Cosmos 2322 Rocket 4.3 20:06:53 10° NW 20:09:40 23° WNW 20:09:40 23° WNW
ATLAS 2AS CENTAUR R/B 4.4 20:21:35 10° NW 20:24:52 27° NNW 20:24:52 27° NNW
